Regional Weather Roundup
Issued by NWS

Home | Current Version | Previous Version | Graphics & Text | Print | Product List | Glossary On
Versions: 1 2 3 4 5 6 7 8 9 10 11 12 13 14 15 16 17 18 19 20 21 22 23 24 25 26 27 28 29 30 31 32 33 34 35 36 37 38 39 40 41 42 43 44 45 46 47 48 49 50
000
ASUS45 KPSR 190900
RWRAZ

PRELIMINARY ARIZONA REGIONAL HOURLY WEATHER ROUNDUP
NATIONAL WEATHER SERVICE PHOENIX AZ
200 AM MST FRI SEP 19 2014

NOTE: FAIR INDICATES FEW OR NO CLOUDS BELOW 12,000 FEET WITH NO
SIGNIFICANT WEATHER AND/OR OBSTRUCTIONS TO VISIBILITY.

AZZ001>003-036-191000-
NORTHWEST ARIZONA

CITY           SKY/WX    TMP DP  RH WIND       PRES   REMARKS
KINGMAN        CLEAR     76  51  41 S10       29.89S
$$

AZZ004>008-015-016-018-191000-
NORTH CENTRAL ARIZONA

CITY           SKY/WX    TMP DP  RH WIND       PRES   REMARKS
GRAND CANYON   CLEAR     50  48  93 CALM      30.14S
PRESCOTT       MOCLDY    68  58  70 SE5       30.03S
FLAGSTAFF        N/A     56  54  93 CALM      30.16F
PAGE           MOCLDY    77  51  40 SW3       29.92R
$$

AZZ009>014-017-191000-
NORTHEAST ARIZONA

CITY           SKY/WX    TMP DP  RH WIND       PRES   REMARKS
WINSLOW        NOT AVBL
SAINT JOHNS    PTCLDY    62  56  80 W8        30.06S
$$

AZZ023-191000-
GREATER PHOENIX AREA

CITY           SKY/WX    TMP DP  RH WIND       PRES   REMARKS
PHOENIX        MOCLDY    86  66  51 CALM      29.76R
DEER VALLEY    CLOUDY    83  66  56 CALM      29.78S
SCOTTSDALE     CLOUDY    83  68  60 CALM      29.81R
MESA-GATEWAY   CLOUDY   N/A N/A N/A SE6       29.81S
$$

AZZ027-028-191000-
SOUTHWEST MARICOPA COUNTY AND PINAL COUNTY

CITY           SKY/WX    TMP DP  RH WIND       PRES   REMARKS
CASA GRANDE    CLOUDY    81  70  69 CALM      29.80S
$$

AZZ503-504-507>509-191000-
SOUTHEAST ARIZONA

CITY           SKY/WX    TMP DP  RH WIND       PRES   REMARKS
TUCSON         CLOUDY    75  69  81 SE5       29.90F
DAVIS-MONTHAN  MOCLDY    74  69  84 S5        29.88F
NOGALES        MOCLDY    67  66  97 CALM      29.98S
SIERRA VISTA   MOCLDY    64  63  94 W5        30.02S
SAFFORD        PTCLDY    69  66  90 SE5       29.91F
$$

AZZ020-021-025-026-031-191000-
SOUTHWEST ARIZONA

CITY           SKY/WX    TMP DP  RH WIND       PRES   REMARKS
YUMA           CLEAR     84  52  33 CALM      29.72S
$$

CAZ031-033-041-043-047-048-061-191000-
SOUTHERN CALIFORNIA

CITY           SKY/WX    TMP DP  RH WIND       PRES   REMARKS
DOWNTOWN L.A.  MOCLDY    68  60  75 CALM      29.87R
L.A. AIRPORT   PTCLDY    68  62  81 W9        29.88R
SAN DIEGO      PTCLDY    72  65  78 SW5       29.88F
BURBANK        CLEAR     68  60  75 SE8       29.87S
ONTARIO        MOCLDY    68  60  75 W8        29.89R
RIVERSIDE      CLOUDY    69  60  73 W5        29.89R
PALM SPRINGS   CLEAR     82  58  43 W6        29.73R
EL CENTRO NAS  CLEAR     83  57  41 W20       29.71R
IMPERIAL       CLEAR     81  58  45 W15       29.70R
BLYTHE         CLEAR     81  59  47 S13       29.70R
$$

NVZ020-UTZ003-191000-
SOUTHERN NEVADA-UTAH

CITY           SKY/WX    TMP DP  RH WIND       PRES   REMARKS
LAS VEGAS      NOT AVBL
SALT LAKE CITY MOCLDY    66  54  65 E5        29.94R
$$

NMZ009-TXZ055-191000-
NEW MEXICO-WEST TEXAS

CITY           SKY/WX    TMP DP  RH WIND       PRES   REMARKS
ALBUQUERQUE    MOCLDY    67  58  72 N6        30.06F
EL PASO        CLOUDY    67  65  93 N5        29.94F
$$


........................KEY........................
SKY/WX - SKY CONDITION/WEATHER
TMP    - TEMPERATURE IN FAHRENHEIT
DP     - DEW POINT IN FAHRENHEIT
RH     - RELATIVE HUMIDITY IN PERCENT
WIND   - DIRECTION AND SPEED IN MILES PER HOUR (MPH)
VRB    - VARIABLE WIND DIRECTION
PRES   - MEAN SEA LEVEL PRESSURE IN INCHES OF MERCURY
         F - FALLING PRESSURE   R - RISING PRESSURE
         S - STEADY PRESSURE
VSB    - VISIBILITY IN MILES
HX     - HEAT INDEX IN FAHRENHEIT
WCI    - WIND CHILL INDEX IN FAHRENHEIT
TC     - TEMPERATURE IN CELSIUS WHICH IS ALSO KNOWN AS
         TEMPERATURE IN CENTIGRADE
AFB    - AIR FORCE BASE
         LUKE AFB IS LUKE AIR FORCE BASE
         DAVIS-MONTHAN IS DAVIS-MONTHAN AIR FORCE BASE
NAS    - NAVAL AIR STATION
         EL CENTRO NAS IS EL CENTRO NAVAL AIR STATION
N/A    - NOT AVAILABLE



USA.gov is the U.S. government's official web portal to all federal, state and local government web resources and services.